Mumbai, India

10:20 PM IST on October 19, 2017 (GMT +0530)
Chhatrapati Shivaji International

Weather History for VABB - December, 2013

Change the Weather History Date:

Friday, December 13, 2013

  Actual Average Record
Temperature  
Mean Temperature 80 °F -  
Max Temperature 91 °F 87 °F 95 °F (2016)
Min Temperature 68 °F 67 °F 61 °F (2012)
Cooling Degree Days 14    
Growing Degree Days 30 (Base 50)    
Moisture  
Dew Point 51 °F    
Average Humidity 38    
Maximum Humidity 61    
Minimum Humidity 16    
Precipitation  
Precipitation 0.00 in - - ()
Sea Level Pressure  
Sea Level Pressure 29.89 in    
Wind  
Wind Speed 7 mph ()    
Max Wind Speed 13 mph    
Max Gust Speed -    
Visibility 1.7 miles    
Events      
Averages and records for this station are not official NWS values.
T = Trace of Precipitation, MM = Missing Value Source: Averaged Metar Reports

Daily Weather History Graph

Daily Weather History Graph

Search for Another Location

Airport or City:

Trip Planner

Search our weather history database for the weather conditions in past years. The results will help you decide how hot, cold, wet, or windy it might be!

Date:

Astronomy

Dec. 13, 2013 Rise Set
Actual Time 7:02 AM IST 6:02 PM IST
Civil Twilight 6:39 AM IST 6:26 PM IST
Nautical Twilight 6:11 AM IST 6:53 PM IST
Astronomical Twilight 5:44 AM IST 7:20 PM IST
Moon 3:08 PM IST (12/13) 3:21 AM IST (12/13)
Length of Visible Light 11h 47m
Length of Day
10h 59m
Waxing Gibbous, 85% of the Moon is Illuminated
Dec 13
Waxing Gibbous
Dec 17
Full
Dec 25
Last Quarter
Jan 1
New
Jan 8
First Quarter

Hourly Weather History & Observations

Time (IST) Temp. Heat Index Dew Point Humidity Pressure Visibility Wind Dir Wind Speed Gust Speed Precip Events Conditions
12:10 AM 77.0 °F - 51.8 °F 41% 29.86 in 1.6 mi NE 4.6 mph - N/A   Smoke
1:10 AM 77.0 °F - 48.2 °F 36% 29.86 in 1.9 mi NE 9.2 mph - N/A   Smoke
1:40 AM 77.0 °F - 48.2 °F 36% 29.83 in 2.2 mi NE 10.4 mph - N/A   Smoke
2:10 AM 77.0 °F - 46.4 °F 34% 29.83 in 2.5 mi NE 10.4 mph - N/A   Smoke
2:30 AM 75 °F - 47 °F 26% 29.83 in 1 mi NE 5.8 mph - -   Smoke
2:40 AM 77.0 °F - 46.4 °F 34% 29.83 in 2.5 mi ENE 10.4 mph - N/A   Smoke
3:10 AM 77.0 °F - 44.6 °F 32% 29.83 in 2.2 mi NE 10.4 mph - N/A   Smoke
3:40 AM 75.2 °F - 44.6 °F 34% 29.83 in 2.2 mi ENE 9.2 mph - N/A   Smoke
4:10 AM 75.2 °F - 44.6 °F 34% 29.83 in 2.2 mi NE 8.1 mph - N/A   Smoke
4:40 AM 75.2 °F - 44.6 °F 34% 29.83 in 2.2 mi ENE 5.8 mph - N/A   Smoke
5:10 AM 75.2 °F - 44.6 °F 34% 29.83 in 2.2 mi East 11.5 mph - N/A   Smoke
5:30 AM 76 °F - 43 °F 20% 29.85 in 1 mi NE 5.8 mph - -   Smoke
5:40 AM 73.4 °F - 44.6 °F 36% 29.86 in 2.2 mi East 9.2 mph - N/A   Smoke
6:10 AM 75.2 °F - 44.6 °F 34% 29.86 in 2.2 mi East 10.4 mph - N/A   Smoke
6:40 AM 73.4 °F - 44.6 °F 36% 29.86 in 2.2 mi East 12.7 mph - N/A   Smoke
7:40 AM 73.4 °F - 44.6 °F 36% 29.89 in 1.7 mi East 9.2 mph - N/A   Smoke
8:10 AM 73.4 °F - 44.6 °F 36% 29.92 in 1.6 mi NE 6.9 mph - N/A   Smoke
8:30 AM 74 °F - 47 °F 27% 29.94 in 1 mi East 3.5 mph - -   Smoke
8:40 AM 75.2 °F - 46.4 °F 36% 29.95 in 1.4 mi ESE 5.8 mph - N/A   Smoke
9:10 AM 77.0 °F - 46.4 °F 34% 29.95 in 1.6 mi ENE 5.8 mph - N/A   Smoke
9:40 AM 78.8 °F - 46.4 °F 32% 29.98 in 1.6 mi ESE 8.1 mph - N/A   Smoke
10:10 AM 80.6 °F - 46.4 °F 30% 29.98 in 1.6 mi ESE 8.1 mph - N/A   Smoke
10:40 AM 80.6 °F - 48.2 °F 32% 29.95 in 1.6 mi ESE 6.9 mph - N/A   Smoke
11:10 AM 82.4 °F - 48.2 °F 30% 29.95 in 1.6 mi ESE 8.1 mph - N/A   Smoke
11:30 AM 85 °F - 46 °F 16% 29.95 in 1 mi East 5.8 mph - -   Smoke
11:40 AM 84.2 °F - 48.2 °F 29% 29.95 in 1.6 mi East 10.4 mph - N/A   Smoke
12:10 PM 86.0 °F - 48.2 °F 27% 29.92 in 1.6 mi ESE 9.2 mph - N/A   Smoke
12:40 PM 87.8 °F - 46.4 °F 24% 29.92 in 1.6 mi ESE 9.2 mph - N/A   Smoke
1:40 PM 87.8 °F - 44.6 °F 22% 29.89 in 1.9 mi SSW 5.8 mph - N/A   Smoke
2:10 PM 89.6 °F 87.7 °F 55.4 °F 31% 29.86 in 2.2 mi WNW 3.5 mph - N/A   Smoke
2:30 PM 88 °F - 54 °F 22% 29.86 in 1 mi West 6.9 mph - -   Smoke
2:40 PM 84.2 °F 83.5 °F 57.2 °F 40% 29.86 in 2.2 mi WNW 11.5 mph - N/A   Smoke
3:10 PM 84.2 °F 83.8 °F 59.0 °F 42% 29.86 in 2.2 mi WNW 9.2 mph - N/A   Smoke
3:40 PM 84.2 °F 83.8 °F 59.0 °F 42% 29.86 in 2.2 mi WNW 10.4 mph - N/A   Smoke
4:40 PM 84.2 °F 84.4 °F 60.8 °F 45% 29.86 in 1.9 mi WNW 9.2 mph - N/A   Smoke
5:10 PM 82.4 °F 82.0 °F 57.2 °F 42% 29.86 in 1.9 mi WNW 10.4 mph - N/A   Smoke
5:30 PM 81 °F - 58 °F 35% 29.86 in 1 mi West 5.8 mph - -   Smoke
5:40 PM 82.4 °F 82.5 °F 59.0 °F 45% 29.86 in 1.9 mi NW 6.9 mph - N/A   Smoke
6:10 PM 80.6 °F 81.1 °F 59.0 °F 48% 29.86 in 1.7 mi NW 9.2 mph - N/A   Smoke
6:40 PM 78.8 °F - 60.8 °F 54% 29.89 in 1.7 mi NW 8.1 mph - N/A   Smoke
7:10 PM 78.8 °F - 60.8 °F 54% 29.89 in 1.7 mi NNW 6.9 mph - N/A   Smoke
7:40 PM 78.8 °F - 60.8 °F 54% 29.89 in 1.7 mi NNW 10.4 mph - N/A   Smoke
8:10 PM 78.8 °F - 59.0 °F 51% 29.89 in 1.6 mi NE 11.5 mph - N/A   Smoke
8:30 PM 77 °F - 60 °F 47% 29.88 in 1 mi NW 6.9 mph - -   Smoke
8:40 PM 78.8 °F - 59.0 °F 51% 29.92 in 1.6 mi SSE 8.1 mph - N/A   Smoke
9:10 PM 77.0 °F - 59.0 °F 54% 29.92 in 1.6 mi NE 5.8 mph - N/A   Smoke
9:40 PM 77.0 °F - 59.0 °F 54% 29.92 in 1.6 mi NNW 6.9 mph - N/A   Smoke
10:10 PM 77.0 °F - 53.6 °F 44% 29.92 in 1.6 mi NNE 6.9 mph - N/A   Smoke
10:40 PM 77.0 °F - 53.6 °F 44% 29.92 in 1.6 mi NE 5.8 mph - N/A   Smoke
11:10 PM 75.2 °F - 53.6 °F 47% 29.92 in 1.5 mi ENE 3.5 mph - N/A   Smoke
11:30 PM 68 °F - 57 °F 59% 29.89 in 1 mi Calm Calm - -   Smoke
11:40 PM 73.4 °F - 59.0 °F 61% 29.89 in 1.4 mi Calm Calm - N/A   Smoke